Weather History for Fryeburg, ME

Change the Weather History Date:

Thursday, February 14, 2013

  Actual Average Record
Temperature  
Mean Temperature 30 °F -  
Max Temperature 39 °F 31 °F 43 °F (2011)
Min Temperature 21 °F 5 °F -11 °F (2003)
Degree Days  
Heating Degree Days 35    
Moisture  
Dew Point 18 °F    
Average Humidity 65    
Maximum Humidity 82    
Minimum Humidity 38    
Precipitation  
Precipitation 0.00 in - - ()
Sea Level Pressure  
Sea Level Pressure 29.88 in    
Wind  
Wind Speed 1 mph (NW)    
Max Wind Speed 6 mph    
Max Gust Speed -    
Visibility 10 miles    
Events Rain    
Averages and records for this station are not official NWS values.
T = Trace of Precipitation, MM = Missing Value Source: NWS Daily Summary

Daily Weather History Graph

Daily Weather History Graph

Search for Another Location

Airport:

Trip Planner

Search our weather history database for the weather conditions in past years. The results will help you decide how hot, cold, wet, or windy it might be!

Date:

Astronomy

Feb. 14, 2013 Rise Set
Actual Time 6:44 AM EST 5:12 PM EST
Civil Twilight 6:14 AM EST 5:42 PM EST
Nautical Twilight 5:40 AM EST 6:15 PM EST
Astronomical Twilight 5:07 AM EST 6:49 PM EST
Moon 8:32 AM EST (2/14) 10:25 PM EST (2/14)
Length of Visible Light 11h 27m
Length of Day
10h 28m
Waxing Crescent, 21% of the Moon is Illuminated
Feb 14
Waxing Crescent
Feb 17
First Quarter
Feb 25
Full
Mar 4
Last Quarter
Mar 11
New

Hourly Weather History & Observations

Time (EST) Temp. Windchill Dew Point Humidity Pressure Visibility Wind Dir Wind Speed Gust Speed Precip Events Conditions
12:54 AM 27.0 °F - 21.0 °F 78% 29.72 in 10.0 mi Calm Calm - N/A   Mostly Cloudy
1:54 AM 28.0 °F - 21.0 °F 75% 29.77 in 10.0 mi Calm Calm - N/A   Overcast
2:54 AM 27.0 °F 23.0 °F 19.9 °F 75% 29.77 in 10.0 mi NW 3.5 mph - N/A   Overcast
3:54 AM 28.0 °F - 19.9 °F 72% 29.78 in 10.0 mi Calm Calm - N/A   Overcast
4:54 AM 26.1 °F - 19.9 °F 78% 29.78 in 10.0 mi Calm Calm - N/A   Overcast
5:54 AM 25.0 °F - 19.9 °F 81% 29.80 in 10.0 mi Calm Calm - 0.00 in   Overcast
6:54 AM 26.1 °F - 19.9 °F 78% 29.82 in 10.0 mi Calm Calm - N/A   Overcast
7:54 AM 27.0 °F - 21.0 °F 78% 29.84 in 10.0 mi Calm Calm - N/A   Overcast
8:54 AM 32.0 °F - 19.9 °F 61% 29.86 in 10.0 mi Calm Calm - N/A   Overcast
9:54 AM 34.0 °F 31.0 °F 19.0 °F 54% 29.87 in 10.0 mi Variable 3.5 mph - 0.00 in Rain Light Rain
10:54 AM 36.0 °F - 18.0 °F 48% 29.88 in 10.0 mi Calm Calm - 0.00 in   Unknown
11:54 AM 36.0 °F - 17.1 °F 46% 29.88 in 10.0 mi Calm Calm - N/A   Clear
12:54 PM 39.0 °F - 17.1 °F 41% 29.87 in 10.0 mi Calm Calm - N/A   Clear
1:54 PM 39.9 °F - 17.1 °F 40% 29.86 in 10.0 mi Calm Calm - N/A   Clear
2:54 PM 39.0 °F 35.7 °F 17.1 °F 41% 29.87 in 10.0 mi Variable 4.6 mph - 0.00 in   Clear
3:54 PM 39.9 °F 35.8 °F 16.0 °F 38% 29.89 in 10.0 mi NNE 5.8 mph - 0.00 in Rain Light Rain
4:54 PM 37.0 °F - 17.1 °F 44% 29.91 in 10.0 mi Calm Calm - 0.00 in   Clear
5:54 PM 30.0 °F - 17.1 °F 59% 29.95 in 10.0 mi Calm Calm - 0.00 in   Mostly Cloudy
6:54 PM 26.1 °F - 18.0 °F 71% 29.98 in 10.0 mi Calm Calm - N/A   Mostly Cloudy
7:54 PM 25.0 °F - 17.1 °F 72% 29.99 in 10.0 mi Calm Calm - N/A   Partly Cloudy
8:54 PM 21.0 °F 16.2 °F 16.0 °F 81% 29.98 in 10.0 mi West 3.5 mph - N/A   Clear
9:54 PM 21.0 °F - 16.0 °F 81% 29.98 in 10.0 mi Calm Calm - N/A   Clear
10:54 PM 21.9 °F - 17.1 °F 82% 29.99 in 10.0 mi Calm Calm - N/A   Mostly Cloudy
11:54 PM 21.0 °F - 16.0 °F 81% 30.00 in 10.0 mi Calm Calm - 0.00 in   Mostly Cloudy